Preview of NWS' New Version of Forecast
This preview is not operational and should not be used for support decisions.

Regional Weather Roundup (RWR)

Issued by National Weather Service (NWS)

                            
000
ASUS46 KPQR 180610
RWROR 

OREGON REGIONAL WEATHER ROUNDUP
NATIONAL WEATHER SERVICE PORTLAND OR
1100 PM PDT SAT AUG 17 2019

NOTE: "FAIR" INDICATES FEW OR NO CLOUDS BELOW 12,000 FEET WITH
NO SIGNIFICANT WEATHER AND/OR OBSTRUCTIONS TO VISIBILITY.

ORZ001>013-180700-
NORTHWEST OREGON

  
CITY           SKY/WX    TMP DP  RH WIND       PRES   REMARKS
ASTORIA        CLOUDY    62  58  86 W3        29.94F                  
6HR MIN TEMP:  62; 6HR MAX TEMP:  67;                                

TILLAMOOK      CLEAR     55  54  94 SE3       29.96S                  
NEWPORT        CLEAR     59  55  88 N7        29.97S                  
PORTLAND       PTCLDY    66  56  70 N3        29.92S                  
6HR MIN TEMP:  66; 6HR MAX TEMP:  72;                                

VANCOUVER WA   CLEAR     65  56  72 CALM      29.91F                  
6HR MIN TEMP:  65; 6HR MAX TEMP:  71;                                

SCAPPOOSE      CLEAR     61  55  81 N5        29.91F                  
6HR MIN TEMP:  61; 6HR MAX TEMP:  70;                                

HILLSBORO      CLEAR     60  54  80 NW6       29.92S                  
6HR MIN TEMP:  60; 6HR MAX TEMP:  71;                                

AURORA         CLEAR     63  54  72 N6        29.92F                  
6HR MIN TEMP:  62; 6HR MAX TEMP:  74;                                

MCMINNVILLE    CLOUDY    65  55  70 N8        29.91S                  
6HR MIN TEMP:  64; 6HR MAX TEMP:  74;                                

SALEM          CLEAR     62  53  72 N7        29.90S                  
6HR MIN TEMP:  62; 6HR MAX TEMP:  76;                                

CORVALLIS      CLEAR     63  56  78 NW8       29.92R                  
EUGENE         CLEAR     63  51  65 N9        29.90S                  
6HR MIN TEMP:  63; 6HR MAX TEMP:  80;                                

$$

ORZ021-028-180700-
SOUTHWEST OREGON

  
CITY           SKY/WX    TMP DP  RH WIND       PRES   REMARKS
NORTH BEND     CLEAR     60  58  92 N12G20    29.93S                  
6HR MIN TEMP:  60; 6HR MAX TEMP:  68;                                

BROOKINGS      CLEAR     57  53  86 CALM      29.84R                  
ROSEBURG       CLEAR     72  53  51 N6        29.87S                  
6HR MIN TEMP:  72; 6HR MAX TEMP:  84;                                

SEXTON SUMMIT  CLEAR     58  46  64 N9        29.95F                  
6HR MIN TEMP:  58; 6HR MAX TEMP:  73;                                

GRANTS PASS    FAIR      73  48  40 NW7       29.88R                  
MEDFORD        CLEAR     70  46  42 N6        29.84R                  
6HR MIN TEMP:  69; 6HR MAX TEMP:  90;                                

$$

ORZ014>016-041-180700-
COLUMBIA GORGE

  
CITY           SKY/WX    TMP DP  RH WIND       PRES   REMARKS
TROUTDALE      CLEAR     65  55  70 CALM      29.91F                  
6HR MIN TEMP:  63; 6HR MAX TEMP:  71;                                

HOOD RIVER     CLEAR     61  52  72 CALM      29.88F                  
THE DALLES     CLEAR     67  51  56 NW9       29.83F                  
6HR MIN TEMP:  66; 6HR MAX TEMP:  78;                                

$$

ORZ029>031-041-044-049-050-061>064-502-503-505>511-180700-
EASTERN OREGON

  
CITY           SKY/WX    TMP DP  RH WIND       PRES   REMARKS
MADRAS         CLEAR     55  48  76 NW6       29.92S                  
REDMOND        CLEAR     56  38  50 CALM      29.91S                  
6HR MIN TEMP:  56; 6HR MAX TEMP:  82;                                

BEND           CLEAR     59  41  51 CALM      29.92F                  
PRINEVILLE     CLEAR     57  39  51 CALM      29.91F                  
KLAMATH FALLS  CLEAR     60  45  57 NW3       29.95R                  
6HR MIN TEMP:  60; 6HR MAX TEMP:  86;                                

LAKEVIEW       CLEAR     54  33  45 NW7       29.98S                  
HERMISTON      CLEAR     66  50  56 SW9       29.80R                  
6HR MIN TEMP:  66; 6HR MAX TEMP:  85;                                

PENDLETON      CLEAR     63  46  54 W12       29.83R                  
6HR MIN TEMP:  63; 6HR MAX TEMP:  81;                                

JOHN DAY       PTCLDY    66  38  36 CALM      29.92F                  
MEACHAM        CLEAR     50  44  80 CALM      29.93F                  
6HR MIN TEMP:  50; 6HR MAX TEMP:  72;                                

LA GRANDE      CLEAR     61  47  59 CALM      29.90S                  
6HR MIN TEMP:  61; 6HR MAX TEMP:  81;                                

BAKER CITY     CLEAR     57  47  69 S7        29.92R                  
6HR MIN TEMP:  57; 6HR MAX TEMP:  81;                                

BURNS          CLEAR     59  36  42 W7        29.93S                  
6HR MIN TEMP:  57; 6HR MAX TEMP:  86;                                

ROME             N/A     68  34  28 E7        29.91R                  
6HR MIN TEMP:  68; 6HR MAX TEMP:  89;                                

ONTARIO        MOCLDY    68  46  45 W3        29.83R                  
6HR MIN TEMP:  66; 6HR MAX TEMP:  89;                                

$$